Location: *
(51.8167°N, 12.5000°E)
Time: 17:27:46
(UTC+00:00)

Cosmos 1190 Rocket - Pass Details

Date: 16 September 2019
Orbit: 757 x 780 km, 74.1° (Epoch: 14 October)

Event Time Altitude Azimuth Distance (km) Brightness Sun altitude
Rises 18:50:13 0° 336° (NNW) 3,276 8.0 -13.8°
Reaches altitude 10° 18:52:38 10° 339° (NNW) 2,343 7.2 -14.2°
Maximum altitude 18:57:56 66° 62° (ENE) 850 4.1 -14.9°
Enters shadow 19:01:26 21° 140° (SE) 1,671 5.2 -15.4°
